F4DOU-5 Weather Reports


time (UTC)temp
F
wind
direction
speed
knots
gust
knots
rain 1hr
in
rain 24hr
in
rain mn
in
humidity
%
barometer
mb
20260510043007 57 346 1.7 7.0 0.01 0.08 0.08 95 1011.2
20260510042006 57 343 2.6 7.0 0.01 0.08 0.08 95 1011.6
20260510041006 57 335 1.7 4.3 0.01 0.08 0.08 95 1011.8
20260510040006 57 329 1.7 5.2 0.01 0.08 0.08 95 1011.8
20260510035007 57 341 1.7 5.2 0.01 0.08 0.08 95 1011.7
20260510033006 57 6 1.7 4.3 0.00 0.07 0.07 95 1012.1
20260510032006 57 353 0.9 2.6 0.00 0.07 0.07 95 1012.3
20260510031007 57 17 1.7 2.6 0.00 0.07 0.07 94 1012.4
20260510030006 57 12 0.9 4.3 0.00 0.07 0.07 94 1012.5
20260510025006 57 20 2.6 6.1 0.00 0.07 0.07 94 1012.7
20260510024006 57 38 1.7 6.1 0.00 0.07 0.07 94 1012.7
20260510023006 57 24 0.9 2.6 0.00 0.07 0.07 94 1012.7
20260510022006 57 20 1.7 2.6 0.00 0.07 0.07 94 1012.7
20260510021006 57 0 0.0 0.0 0.00 0.07 0.07 94 1012.8
20260510020006 57 0 0.0 2.6 0.00 0.07 0.07 93 1012.7
20260510015006 57 5 0.9 2.6 0.00 0.07 0.07 94 1012.6
20260510014006 57 5 0.0 1.7 0.01 0.07 0.07 93 1012.6
20260510013006 58 5 0.9 2.6 0.02 0.07 0.07 93 1012.5
20260510011006 58 58 0.9 1.7 0.02 0.07 0.07 92 1012.9
20260510010006 58 5 0.0 2.6 0.04 0.07 0.07 92 1012.9
20260510005006 58 5 0.9 1.7 0.05 0.07 0.07 92 1012.8
20260510004006 58 325 0.0 0.9 0.06 0.06 0.06 91 1012.9
20260510003006 59 325 0.0 1.7 0.06 0.06 0.06 91 1013.2
20260510002006 59 44 0.0 2.6 0.06 0.06 0.06 90 1013.3
20260510001006 59 58 0.9 2.6 0.05 0.05 0.05 90 1013.5
20260510000006 60 159 0.0 2.6 0.03 0.03 0.03 89 1013.5
20260509235005 60 186 0.9 5.2 0.02 0.02 0.02 88 1013.1
20260509234006 60 215 1.7 5.2 0.00 0.00 0.00 86 1013.1
20260509233006 61 225 0.9 6.1 0.00 0.00 0.00 85 1013.0
20260509232005 61 234 0.9 7.0 0.00 0.00 0.00 84 1012.9
20260509231005 62 255 0.9 4.3 0.00 0.00 0.00 82 1012.9
20260509230005 62 194 0.9 2.6 0.00 0.00 0.00 81 1012.8
20260509225005 62 209 0.9 2.6 0.00 0.00 0.00 80 1012.9
20260509224005 62 210 1.7 6.1 0.00 0.00 0.00 80 1012.7
20260509223005 62 250 0.9 2.6 0.00 0.00 0.00 80 1012.6
20260509222006 62 237 0.9 2.6 0.00 0.00 0.00 80 1012.6
20260509220006 61 268 2.6 5.2 0.00 0.00 0.00 81 1012.5
20260509215005 61 271 0.0 0.0 0.00 0.00 0.00 82 1012.7
20260509214006 61 271 0.0 0.0 0.00 0.00 0.00 82 1012.8
20260509212006 61 271 0.0 0.0 0.00 0.00 0.00 81 1012.7
20260509211005 61 273 0.0 0.0 0.00 0.00 0.00 81 1012.8
20260509210006 62 213 0.0 0.0 0.00 0.00 0.00 81 1012.9
20260509205005 62 247 0.0 0.0 0.00 0.00 0.00 77 1012.8
20260509204006 62 250 0.0 0.0 0.00 0.00 0.00 77 1012.8
20260509203005 62 250 0.0 0.0 0.00 0.00 0.00 76 1012.9
20260509202006 62 250 0.0 0.0 0.00 0.00 0.00 75 1012.8
20260509201006 63 250 0.0 0.0 0.00 0.00 0.00 75 1012.8
20260509200006 63 212 0.0 0.0 0.00 0.00 0.00 74 1012.9
20260509195006 63 212 0.0 0.0 0.00 0.00 0.00 74 1012.8
20260509194006 63 212 0.0 1.7 0.00 0.00 0.00 74 1012.8
20260509193006 64 198 0.9 1.7 0.00 0.00 0.00 74 1012.7
20260509192006 64 198 0.0 1.7 0.00 0.00 0.00 71 1012.6
20260509190006 65 198 0.0 1.7 0.00 0.00 0.00 73 1012.4
20260509185006 65 198 0.0 1.7 0.00 0.00 0.00 72 1012.4
20260509184006 66 197 0.0 0.9 0.00 0.00 0.00 68 1012.3
20260509183006 66 196 0.9 1.7 0.00 0.00 0.00 67 1012.3
20260509181006 66 197 0.0 2.6 0.00 0.00 0.00 66 1012.1
20260509180006 67 211 1.7 2.6 0.00 0.00 0.00 65 1012.0
20260509175006 67 184 1.7 4.3 0.00 0.00 0.00 65 1012.0
20260509174007 68 183 1.7 5.2 0.00 0.00 0.00 63 1011.9
20260509173006 68 213 1.7 5.2 0.00 0.00 0.00 61 1011.9
20260509172006 68 216 1.7 6.1 0.00 0.00 0.00 59 1011.7
20260509171006 69 200 2.6 5.2 0.00 0.00 0.00 60 1011.8
20260509170007 69 214 2.6 4.3 0.00 0.00 0.00 59 1011.7
20260509165006 69 215 1.7 6.1 0.00 0.00 0.00 59 1011.8
20260509164006 69 225 2.6 7.0 0.00 0.00 0.00 58 1012.0
20260509163006 69 217 2.6 4.3 0.00 0.00 0.00 58 1012.1
20260509162005 69 210 1.7 6.1 0.00 0.00 0.00 58 1012.2
20260509161005 69 217 2.6 6.1 0.00 0.00 0.00 59 1012.2
20260509160006 70 222 2.6 7.8 0.00 0.00 0.00 59 1012.4
20260509155005 70 210 4.3 8.7 0.00 0.00 0.00 59 1012.4
20260509154004 70 205 3.5 10.4 0.00 0.00 0.00 58 1012.4
20260509152006 71 209 5.2 8.7 0.00 0.00 0.00 55 1012.5
20260509151005 72 198 3.5 10.4 0.00 0.00 0.00 55 1012.6
20260509150005 72 195 5.2 10.4 0.00 0.00 0.00 53 1012.6
20260509145006 73 226 4.3 10.4 0.00 0.00 0.00 51 1012.9
20260509144005 74 207 4.3 10.4 0.00 0.00 0.00 47 1013.0
20260509143005 74 220 5.2 10.4 0.00 0.00 0.00 48 1012.9
20260509142005 75 199 5.2 13.0 0.00 0.00 0.00 45 1013.0
20260509140006 74 191 6.1 12.2 0.00 0.00 0.00 45 1013.0
20260509135006 74 194 3.5 10.4 0.00 0.00 0.00 45 1013.2
20260509134005 74 187 7.0 13.9 0.00 0.00 0.00 46 1013.3
20260509133005 75 187 5.2 10.4 0.00 0.00 0.00 47 1013.3
20260509132005 75 195 7.0 12.2 0.00 0.00 0.00 46 1013.5
20260509131005 75 209 6.1 12.2 0.00 0.00 0.00 45 1013.5
20260509130005 75 200 2.6 10.4 0.00 0.00 0.00 44 1013.5
20260509125005 76 187 5.2 10.4 0.00 0.00 0.00 43 1013.5
20260509123005 75 213 5.2 10.4 0.00 0.00 0.00 44 1014.0
20260509122005 75 203 6.1 10.4 0.00 0.00 0.00 47 1014.1
20260509120005 73 240 4.3 13.0 0.00 0.00 0.00 48 1014.3
20260509114005 73 169 7.8 12.2 0.00 0.00 0.00 49 1014.6
20260509112005 72 161 4.3 10.4 0.00 0.00 0.00 47 1014.8
20260509111005 72 156 5.2 10.4 0.00 0.00 0.00 47 1014.8
20260509110005 72 149 4.3 10.4 0.00 0.00 0.00 48 1014.9
20260509105006 72 117 5.2 10.4 0.00 0.00 0.00 48 1014.7
20260509104005 72 129 2.6 6.1 0.00 0.00 0.00 47 1014.6
20260509103005 71 183 1.7 7.0 0.00 0.00 0.00 47 1015.1
20260509102005 71 122 4.3 7.0 0.00 0.00 0.00 47 1015.1
20260509101004 71 79 0.9 4.3 0.00 0.00 0.00 49 1015.1
20260509100006 70 44 2.6 6.1 0.00 0.00 0.00 51 1015.2
20260509093006 70 55 1.7 6.1 0.00 0.00 0.00 54 1015.5
20260509092005 70 110 1.7 4.3 0.00 0.00 0.00 56 1015.8
20260509091005 69 111 1.7 2.6 0.00 0.00 0.00 63 1015.8
20260509090005 68 122 0.9 2.6 0.00 0.00 0.00 62 1015.9
20260509084005 67 62 0.9 4.3 0.00 0.00 0.00 67 1016.1
20260509083005 66 128 1.7 4.3 0.00 0.00 0.00 68 1016.2
20260509082005 66 145 0.9 4.3 0.00 0.00 0.00 68 1016.2
20260509081005 66 81 0.9 4.3 0.00 0.00 0.00 73 1016.2
20260509080005 65 83 0.9 2.6 0.00 0.00 0.00 76 1016.3
20260509075005 64 85 0.9 2.6 0.00 0.00 0.00 81 1016.4
20260509073005 61 85 0.9 2.6 0.00 0.00 0.00 84 1016.4
20260509072006 60 24 1.7 5.2 0.00 0.00 0.00 86 1016.4
20260509071005 59 78 0.9 2.6 0.00 0.00 0.00 88 1016.4
20260509070005 58 87 1.7 2.6 0.00 0.00 0.00 88 1016.5
20260509063005 56 56 0.0 0.0 0.00 0.00 0.00 91 1016.7
20260509062006 55 333 0.0 0.0 0.00 0.00 0.00 92 1016.6
20260509061005 54 333 0.0 0.0 0.00 0.00 0.00 92 1016.6
20260509060007 53 304 0.0 0.0 0.00 0.00 0.00 93 1016.6
20260509054006 52 304 0.0 0.0 0.00 0.00 0.00 93 1016.5
20260509053005 51 304 0.0 0.0 0.00 0.00 0.00 93 1016.4
20260509052007 50 304 0.0 0.0 0.00 0.00 0.00 94 1016.4
20260509051005 50 304 0.0 0.0 0.00 0.00 0.00 94 1016.4
20260509050005 49 304 0.0 0.0 0.00 0.00 0.00 94 1016.4
20260509045005 49 304 0.0 1.7 0.00 0.00 0.00 94 1016.3